Flag for USA

Past Weather in Tullahoma, Tennessee, USA — Yesterday and Last 2 Weeks

Now
88 °F

Sunny.


Feels Like: 90 °F
Forecast: 89 / 67 °F
Wind: 8 mph from Northeast

Location: Deason

Current Time: Jul 3, 2020 at 6:50:26 pm

Latest Report: Jul 3, 2020 at 6:15 pm


Visibility: 10 mi

Pressure: 29.92 "Hg

Humidity: 49%

Dew Point: 66 °F

Location of TullahomaLocation

Past Weather in Tullahoma — Graph

°F

Tullahoma Temperature Yesterday

Maximum temperature yesterday: 88 °F (at 3:15 pm)
Minimum temperature yesterday: 70 °F (at 2:15 am)
Average temperature yesterday: 77 °F

High & Low Weather Summary for the Past Weeks

 TemperatureHumidityPressure
High90 °F (Jun 20, 3:15 pm)100% (Jun 18, 11:55 pm)30.20 "Hg (Jun 18, 11:55 pm)
Low61 °F (Jun 19, 2:55 am)40% (Jun 19, 1:55 pm)29.82 "Hg (Jun 23, 4:35 am)
Average75 °F83%30.00 "Hg
* Reported Jun 18 5:15 pm — Jul 3 5:35 pm, Tullahoma. Weather by CustomWeather, © 2020

Note: Actual official high and low records may vary slightly from our data, if they occured in-between our weather recording intervals... More about our weather records

Tullahoma Weather History for the Previous 24 Hours

Scroll right to see more
 ConditionsComfort  
Time TempWeatherWind HumidityBarometerVisibility
5:35 pm
Fri, Jul 3
88 °FSunny.6 mph49%29.91 "Hg10 mi
5:15 pm88 °FSunny.6 mph46%29.91 "Hg10 mi
4:55 pm88 °FPassing clouds.6 mph49%29.91 "Hg10 mi
4:35 pm88 °FSunny.8 mph49%29.92 "Hg10 mi
4:15 pm88 °FSunny.5 mph52%29.93 "Hg10 mi
3:55 pm88 °FSunny.3 mph52%29.94 "Hg10 mi
3:35 pm90 °FSunny.No wind43%29.94 "Hg10 mi
3:15 pm90 °FSunny.No wind43%29.95 "Hg10 mi
2:35 pm90 °FSunny.5 mph43%29.95 "Hg10 mi
2:15 pm90 °FSunny.No wind43%29.96 "Hg10 mi
1:55 pm90 °FSunny.3 mph46%29.97 "Hg10 mi
1:35 pm90 °FSunny.No wind43%29.97 "Hg10 mi
1:15 pm88 °FSunny.No wind46%29.98 "Hg10 mi
12:55 pm88 °FSunny.7 mph52%29.98 "Hg10 mi
12:35 pm88 °FSunny.No wind52%29.98 "Hg10 mi
12:15 pm88 °FSunny.6 mph49%29.99 "Hg10 mi
11:55 am88 °FSunny.6 mph49%29.99 "Hg10 mi
11:35 am88 °FSunny.6 mph52%29.99 "Hg10 mi
11:15 am86 °FSunny.5 mph52%30.00 "Hg10 mi
10:55 am86 °FSunny.3 mph55%30.00 "Hg10 mi
10:35 am86 °FSunny.6 mph59%30.00 "Hg10 mi
10:15 am84 °FWarm.No wind58%30.01 "Hg10 mi
9:50 am84 °FSunny.3 mph62%30.01 "Hg10 mi
9:35 am82 °FSunny.No wind66%30.01 "Hg10 mi
9:15 am82 °FSunny.No wind66%30.01 "Hg10 mi
8:55 am81 °FSunny.No wind74%30.02 "Hg10 mi
8:35 am79 °FSunny.No wind79%30.02 "Hg10 mi
7:55 am77 °FSunny.No wind83%30.01 "Hg10 mi
7:35 am75 °FSunny.No wind89%30.00 "Hg10 mi
7:15 am73 °FPassing clouds.No wind94%30.00 "Hg9 mi
6:55 am72 °FScattered clouds.No wind100%30.00 "Hg7 mi
6:35 am70 °FFog.No wind100%29.99 "Hg5 mi
6:15 am68 °FFog.No wind100%29.98 "Hg3 mi
5:55 am68 °FFog.No wind100%29.98 "Hg3 mi
5:35 am68 °FFog.No wind100%29.98 "Hg5 mi
5:15 am68 °FFog.No wind100%29.97 "Hg5 mi
4:55 am70 °FFog.No wind94%29.97 "Hg5 mi
4:35 am70 °FFog.No wind100%29.97 "Hg5 mi
4:15 am70 °FFog.3 mph100%29.97 "Hg4 mi
3:55 am70 °FFog.No wind100%29.96 "Hg5 mi
3:35 am70 °FFog.No wind100%29.97 "Hg5 mi
3:15 am70 °FFog.No wind100%29.97 "Hg5 mi
2:55 am72 °FPassing clouds.No wind94%29.97 "Hg10 mi
2:35 am70 °FFog.No wind100%29.98 "Hg4 mi
2:15 am70 °FFog.No wind100%29.98 "Hg5 mi
1:35 am70 °FFog.No wind100%29.98 "Hg5 mi
1:15 am70 °FFog.3 mph100%29.97 "Hg3 mi
12:55 am70 °FFog.No wind100%29.97 "Hg4 mi
12:35 am72 °FFog.No wind94%29.97 "Hg5 mi
12:15 am72 °FClear.No wind94%29.97 "Hg8 mi
11:55 pm
Thu, Jul 2
72 °FFog.No wind100%29.97 "Hg5 mi
11:35 pm73 °FClear.No wind94%29.97 "Hg10 mi
11:15 pm73 °FClear.No wind94%29.96 "Hg9 mi
10:55 pm73 °FClear.No wind94%29.96 "Hg10 mi
10:35 pm73 °FClear.No wind100%29.96 "Hg10 mi
10:15 pm73 °FClear.No wind100%29.96 "Hg10 mi
9:55 pm73 °FClear.No wind100%29.96 "Hg10 mi
9:35 pm75 °FClear.No wind94%29.95 "Hg10 mi
9:15 pm77 °FClear.No wind89%29.94 "Hg10 mi
8:35 pm77 °FPassing clouds.No wind89%29.94 "Hg10 mi
7:55 pm81 °FSunny.3 mph79%29.93 "Hg10 mi
7:35 pm82 °FSunny.No wind74%29.93 "Hg10 mi
6:55 pm86 °FPassing clouds.5 mph62%29.93 "Hg10 mi
6:35 pm86 °FScattered clouds.No wind66%29.93 "Hg10 mi
6:15 pm88 °FPassing clouds.No wind55%29.93 "Hg10 mi
Weather by CustomWeather, © 2020

See weather overview